Location: Normandy Village
(37.8755°N, 122.2655°W)
Time: 10:32:39
(UTC+00:00)

MOS 1-B - Pass Details

Date: 22 September 2019
Orbit: 906 x 913 km, 99.4° (Epoch: 15 October)

Event Time Altitude Azimuth Distance (km) Brightness Sun altitude
Rises 13:18:04 0° 12° (NNE) 3,546 7.7 -8.4°
Reaches altitude 10° 13:20:29 10° 11° (N) 2,602 7.0 -8.0°
Maximum altitude 13:26:16 77° 287° (WNW) 937 4.4 -6.8°
Drops below altitude 10° 13:32:03 10° 202° (SSW) 2,591 6.5 -5.7°
Sets 13:34:27 0° 200° (SSW) 3,530 7.2 -5.2°
